Theta_e
318 315 315 316 316 316 317 317 316 316 315 315 316 317 317 317 317 317 317 316 315 316 316 314 314 314 316 316 315 314 314 315 316 318 321 322 322 317 312 310 310 306 305 305 304 304 303
323 320 316 315 316 316 316 316 317 316 316 315 315 316 317 317 317 317 317 316 315 315 316 315 314 314 315 314 315 314 314 315 316 317 319 320 321 318 311 307 307 305 303 303 303 303 302
325 324 322 317 316 316 316 316 316 317 315 316 315 315 317 317 317 317 318 317 315 315 316 315 315 313 315 315 314 314 314 315 316 317 319 319 318 316 311 305 305 305 304 303 302 302 302
326 325 325 323 318 316 316 316 316 316 317 315 316 315 315 317 318 317 318 318 315 315 316 315 314 313 314 314 314 314 313 314 315 315 316 316 316 313 309 307 306 305 304 307 304 302 301
325 326 325 325 324 319 316 317 316 316 316 316 315 316 315 316 318 318 318 318 315 314 315 314 313 314 314 314 314 313 314 313 314 315 314 314 314 309 308 307 308 305 309 308 307 302 301
325 326 326 325 324 323 320 317 317 316 316 316 316 316 315 315 317 318 318 318 315 314 314 314 314 313 313 314 313 313 313 313 314 314 314 315 312 304 303 305 307 308 309 307 309 304 301
323 324 326 325 325 324 323 320 317 317 316 316 316 316 316 315 316 318 318 316 317 316 315 315 315 313 314 313 313 313 313 313 313 314 311 310 310 310 307 306 306 307 307 307 307 304 302
320 322 323 324 324 324 324 323 319 318 317 315 316 316 316 315 315 318 317 318 317 316 315 315 314 314 314 313 313 313 313 313 313 312 311 309 311 307 305 306 306 307 308 306 305 304 302
317 318 320 320 322 324 324 324 324 319 318 316 315 316 316 315 316 317 316 317 317 316 314 314 313 313 313 313 313 313 313 313 311 310 309 310 309 307 308 305 306 305 306 304 304 303 303
314 316 317 317 321 323 323 324 324 323 318 318 315 316 316 315 316 317 318 317 316 314 309 311 312 313 313 313 312 311 313 313 310 308 307 308 306 307 307 307 304 305 304 305 305 303 305
310 313 317 319 321 322 323 324 324 324 322 318 317 315 316 315 316 318 318 317 314 317 312 312 312 312 313 313 312 311 312 313 310 309 309 309 307 306 307 306 304 304 304 305 305 303 304
307 310 310 314 318 319 320 323 324 324 324 320 318 315 316 315 315 318 318 316 316 310 313 313 312 311 312 312 312 311 311 312 309 307 305 306 305 304 304 303 303 303 305 304 303 302 306
300 303 308 310 313 315 318 319 322 323 324 324 320 317 315 315 315 317 317 317 310 311 313 314 312 311 311 311 311 311 310 309 308 310 309 307 306 304 303 304 303 303 302 305 307 306 307
297 297 301 308 311 314 315 318 319 322 324 323 323 320 315 315 315 317 317 313 313 312 314 313 312 311 312 311 311 310 310 309 307 308 307 310 310 305 302 303 304 303 303 305 310 307 304
296 297 297 302 310 314 316 317 318 320 323 323 321 323 316 315 315 315 316 312 311 313 315 313 313 313 312 312 311 310 309 307 306 306 309 309 311 302 301 301 302 303 304 301 301 302 304
296 296 297 297 302 311 315 316 316 319 321 322 322 322 316 315 314 315 310 312 312 314 314 313 314 313 313 312 312 310 309 308 309 306 307 308 309 304 302 302 300 303 300 304 302 307 309
296 296 296 296 297 302 311 314 315 316 320 321 322 318 315 315 313 315 312 310 312 315 315 314 313 314 312 312 311 310 310 309 307 305 306 306 306 305 304 303 302 300 301 299 299 301 305
296 296 296 296 296 297 302 311 313 315 317 321 319 313 315 315 313 308 310 311 314 315 314 314 313 313 312 311 310 310 310 308 307 305 306 305 303 306 306 301 301 301 302 300 305 303 297
295 295 295 295 295 297 298 306 312 315 320 320 315 314 314 314 311 309 310 313 315 315 314 313 314 313 313 312 314 310 310 306 306 305 305 304 305 305 306 304 302 302 300 299 299 298 299
295 295 295 295 295 295 297 300 311 315 318 320 314 311 313 313 311 309 312 313 314 314 315 313 313 313 313 313 311 312 310 305 305 306 308 305 302 305 308 307 304 304 301 300 301 299 301
295 295 295 295 295 295 295 298 306 314 317 319 314 310 311 309 309 309 309 312 313 314 312 313 312 312 313 313 313 312 307 304 304 308 304 303 306 304 304 305 305 306 304 300 300 301 306
296 296 296 295 295 296 296 296 300 311 316 318 314 312 312 310 311 308 309 311 313 313 311 312 311 312 310 311 311 312 308 305 307 303 303 300 305 305 307 305 304 305 304 301 300 300 299
296 296 296 296 295 297 298 297 297 305 314 317 317 313 312 309 308 308 308 310 311 313 313 312 310 311 311 310 311 311 309 308 306 303 301 302 303 303 307 305 305 307 304 302 300 298 302
300 297 297 296 295 296 296 295 296 300 311 315 316 315 312 309 308 308 311 310 311 311 313 309 309 310 309 309 309 307 305 303 303 300 302 300 302 301 304 305 310 309 302 302 303 302 299
302 300 297 296 295 295 295 294 296 297 306 313 316 315 313 306 309 310 311 311 308 308 308 308 307 307 307 307 305 306 306 307 302 298 301 301 302 301 307 305 307 310 301 302 303 306 302
303 302 300 296 295 295 294 293 293 296 300 310 314 314 313 313 311 314 312 312 311 309 307 305 305 306 305 304 304 309 311 310 306 302 301 300 299 302 300 306 311 309 305 303 302 306 305
303 302 301 300 296 295 294 294 294 295 298 306 312 314 313 312 314 313 312 311 312 308 306 302 304 303 306 299 304 305 310 306 308 305 302 302 298 302 302 304 305 305 303 303 309 309 305
303 303 302 300 299 295 296 297 297 296 296 300 309 312 313 313 314 313 311 310 308 308 307 303 304 303 300 302 304 306 306 305 305 303 302 304 305 302 300 303 309 303 302 306 307 308 307
303 303 302 301 299 298 297 298 297 296 296 297 304 309 311 312 312 313 313 313 311 311 308 304 306 304 304 302 301 303 307 302 305 309 298 305 306 306 306 307 306 304 307 309 307 308 309
Wind_Speed
7 7 6 6 6 6 7 7 7 7 8 7 7 5 4 4 4 3 4 4 4 5 5 5 6 5 2 2 2 6 7 5 5 2 4 4 4 5 5 6 4 5 3 7 9 10 11
8 7 7 7 6 6 6 6 7 6 7 7 7 6 5 3 5 5 4 5 5 6 5 5 5 4 2 2 2 4 7 6 3 2 4 6 3 9 11 6 5 5 14 10 5 6 7
10 8 7 8 7 7 6 6 6 7 7 7 7 6 6 5 4 6 7 6 6 6 5 5 5 4 2 3 2 2 4 7 7 5 7 9 12 2 8 6 11 9 5 3 2 4 2
13 11 9 8 8 8 8 7 7 7 7 7 7 8 7 7 6 5 7 8 6 6 5 4 4 2 1 3 1 2 3 6 7 10 8 7 6 13 6 17 5 4 4 2 2 5 4
15 14 11 10 9 9 9 8 8 8 8 8 8 7 8 7 7 6 6 7 7 5 4 4 3 2 2 2 2 3 3 2 6 10 11 6 3 9 5 4 3 5 1 2 2 9 4
15 15 14 12 11 10 9 9 9 9 9 8 8 8 8 8 8 6 6 5 5 5 4 4 6 3 3 2 2 1 4 4 2 3 2 2 5 4 3 4 2 2 1 3 4 4 3
15 16 15 15 13 12 11 10 10 9 10 10 9 9 8 9 7 6 4 2 2 1 6 4 2 2 1 3 2 2 2 4 2 2 2 4 5 0 4 4 2 2 2 3 2 4 4
16 18 17 18 15 13 12 11 11 10 10 10 10 9 9 8 6 4 2 2 4 1 4 8 7 6 4 5 1 1 2 3 2 2 1 5 0 2 4 3 1 2 2 3 1 2 5
12 14 17 22 19 16 14 13 11 11 11 10 10 10 9 8 4 2 2 2 1 1 1 3 5 4 3 6 2 2 2 3 3 3 1 4 1 3 2 2 1 1 2 1 2 1 1
9 12 18 17 16 17 16 15 12 11 11 11 10 9 8 6 1 2 2 1 1 1 4 4 2 2 5 4 1 0 3 2 4 4 3 2 1 2 1 1 3 2 1 1 1 3 2
10 9 12 12 14 16 16 16 14 12 11 10 10 9 7 3 1 4 2 0 1 1 3 1 1 3 4 3 5 2 2 3 5 3 3 1 2 1 1 1 1 1 2 2 2 2 3
12 12 12 13 14 16 17 17 16 14 11 10 10 9 6 4 4 4 2 2 4 5 5 1 3 2 3 1 2 3 2 4 6 4 4 2 1 1 2 2 3 3 3 5 4 3 2
12 12 13 12 13 15 17 18 18 16 13 10 9 9 8 5 3 6 3 6 4 3 1 3 3 3 2 2 1 1 2 1 4 3 1 1 0 1 1 3 2 4 4 4 4 4 4
15 15 14 13 11 13 12 16 17 16 15 11 10 9 8 6 6 7 6 4 3 3 5 2 3 3 5 5 1 2 3 1 2 4 2 3 3 2 1 1 4 2 4 4 3 2 5
16 15 15 15 12 12 11 10 13 15 15 13 11 9 7 7 7 9 7 2 7 6 2 5 2 3 3 2 3 1 4 4 6 7 7 4 2 1 2 1 1 3 2 3 6 1 2
15 14 15 15 15 13 13 12 13 12 11 11 10 8 6 6 8 11 3 5 4 4 2 2 6 4 5 4 4 4 4 3 3 2 1 3 0 0 1 3 5 1 5 3 3 1 4
15 14 13 14 15 16 15 14 12 11 9 9 7 3 4 9 10 7 4 6 5 6 4 4 5 4 4 5 6 4 3 0 2 3 2 4 3 0 1 5 7 1 1 5 4 3 4
16 16 14 13 14 15 15 14 13 11 10 9 4 0 5 13 3 1 3 5 3 4 5 2 3 4 7 6 5 3 4 3 3 6 5 2 4 3 2 1 0 1 4 5 5 4 1
18 17 16 14 13 14 14 13 12 11 7 7 4 4 7 15 3 2 4 4 3 2 3 4 3 4 2 5 3 5 3 1 2 3 6 5 1 2 2 2 3 3 4 4 5 3 6
20 18 16 15 13 14 14 14 12 12 10 8 3 1 4 10 5 6 4 4 4 4 4 4 2 2 1 3 2 5 4 1 1 3 3 5 3 6 6 4 4 4 5 5 5 4 5
22 20 18 16 14 13 13 15 15 13 10 11 5 4 3 3 4 5 4 2 4 4 5 4 1 5 6 5 2 4 1 3 1 2 2 3 4 4 5 6 5 5 5 9 10 6 7
24 21 19 17 16 13 12 13 17 17 15 16 4 3 3 2 2 6 3 5 6 3 5 4 4 5 6 8 9 7 6 4 6 1 4 2 2 3 4 1 5 6 9 12 11 4 12
26 23 21 18 17 13 11 12 16 19 18 13 15 6 3 1 1 4 5 7 7 2 4 3 6 3 3 8 5 2 5 4 10 9 7 4 5 3 5 3 6 7 9 12 6 6 9
28 26 24 20 18 17 14 10 15 19 21 19 14 10 6 3 3 5 1 6 6 5 3 1 1 4 1 7 15 14 15 13 10 7 7 6 4 2 3 3 3 6 2 5 12 8 16
30 28 26 23 19 18 17 13 13 18 22 22 17 14 7 3 6 3 5 3 4 3 2 1 1 2 17 2 4 4 4 1 2 5 2 3 5 1 2 3 8 5 4 7 7 9 19
33 30 27 25 22 18 16 15 13 14 20 22 20 18 8 3 7 10 6 8 4 3 2 3 1 4 5 4 3 5 6 5 3 2 4 4 6 4 2 3 5 5 1 6 4 6 3
37 34 30 25 23 19 17 15 14 13 17 22 20 21 12 4 7 8 5 5 6 4 3 2 5 7 3 2 2 3 5 2 5 7 5 2 2 5 2 3 8 7 6 8 2 7 3
40 37 32 28 24 21 18 16 13 12 12 18 22 21 20 8 12 13 9 6 5 6 5 7 5 1 3 2 4 4 4 6 3 4 7 8 7 4 3 1 8 10 7 7 4 5 3
42 39 34 30 25 22 20 18 15 13 12 13 19 20 19 10 8 17 20 16 12 8 7 11 3 4 8 3 1 2 3 2 4 4 2 3 7 6 10 7 3 20 13 14 12 10 7
Wind_Direction
336 337 339 332 339 346 348 350 353 358 1 360 353 346 338 303 280 269 288 296 301 298 294 299 323 327 283 280 290 344 350 342 335 319 228 203 183 127 98 96 69 76 112 75 112 118 112
308 324 330 326 323 329 339 340 340 344 348 350 348 336 325 308 284 273 278 289 293 292 286 297 311 321 298 291 313 359 12 4 28 18 238 203 192 129 100 66 62 92 103 108 106 112 130
281 293 313 323 323 320 323 330 333 332 334 338 339 332 318 302 282 276 282 284 291 290 283 285 301 300 268 282 296 21 28 48 52 57 97 121 124 103 102 102 111 107 77 61 119 147 130
264 274 287 301 316 315 316 324 326 324 324 326 329 328 318 302 287 270 277 290 287 286 266 272 287 286 247 228 277 182 65 56 57 71 98 105 105 99 79 116 75 71 69 44 213 164 154
261 267 274 286 300 313 313 314 320 321 320 319 322 323 318 306 292 280 275 287 286 269 240 257 281 251 259 213 237 268 213 120 78 86 89 87 101 89 105 84 45 19 210 230 286 200 138
259 264 268 277 288 299 312 313 313 317 317 314 314 316 317 307 294 286 282 280 274 263 252 247 252 286 238 182 209 304 215 191 158 130 80 59 74 82 50 75 250 254 227 258 252 205 156
250 258 264 265 272 285 298 309 308 312 316 313 311 312 314 310 299 288 285 269 214 261 231 239 168 248 168 177 191 321 212 194 157 113 59 28 64 262 203 172 152 130 187 240 222 167 156
251 253 264 257 260 268 280 295 308 308 310 313 310 312 312 311 301 283 295 154 118 168 319 252 244 232 223 199 212 173 160 177 131 117 88 25 348 182 122 117 152 169 233 265 339 135 176
264 263 262 258 250 259 266 276 292 305 305 310 311 312 314 312 301 276 166 153 104 308 141 273 227 210 206 208 233 201 189 151 101 116 81 151 166 147 131 79 84 163 203 239 247 36 209
275 267 260 266 257 253 261 264 276 293 302 307 313 313 318 321 251 176 146 170 315 303 57 273 212 205 180 170 120 134 158 138 43 155 121 118 107 168 129 111 121 315 92 95 97 50 277
282 283 274 261 253 252 255 258 266 278 295 301 307 308 313 323 251 183 163 123 140 253 326 147 136 157 164 161 140 64 128 126 141 133 101 257 155 158 166 142 158 201 58 60 68 92 32
289 288 282 263 258 255 254 254 257 265 278 295 298 303 295 291 243 194 176 153 142 44 258 189 130 146 100 72 93 123 134 104 103 95 49 95 56 57 119 88 81 132 75 50 56 76 4
284 282 279 275 268 263 258 254 253 255 264 280 296 296 291 278 231 197 182 160 50 157 60 196 196 148 129 181 154 122 129 100 145 99 255 27 204 67 98 103 62 76 56 342 350 10 233
275 275 274 272 272 271 266 263 257 254 257 265 282 296 289 263 225 197 172 55 177 230 223 126 122 103 172 160 238 140 102 235 226 106 122 181 293 165 344 99 159 129 135 145 283 299 285
275 268 269 271 265 259 262 273 271 254 262 265 275 285 283 252 228 195 179 104 205 206 179 148 111 144 224 171 175 162 202 208 203 177 166 150 257 8 54 123 97 158 112 164 103 25 2
273 272 265 265 264 258 253 259 263 273 264 268 275 287 257 231 206 188 98 224 227 203 118 134 187 166 192 199 162 181 197 200 172 192 135 170 38 274 166 115 38 142 151 75 23 104 295
269 274 271 265 260 255 252 259 263 271 255 272 270 276 226 195 175 179 177 228 247 236 176 184 214 164 199 178 175 202 218 258 137 140 126 133 121 254 13 205 174 108 106 54 113 111 168
259 268 273 271 259 255 250 248 258 266 246 246 237 189 200 181 159 27 174 204 238 231 197 198 189 182 185 166 169 230 215 225 162 155 157 192 139 189 222 315 67 165 172 147 118 224 63
254 259 266 268 264 257 250 242 245 246 216 202 240 222 194 188 173 241 270 270 243 207 223 177 222 225 167 171 187 192 194 93 159 154 155 186 313 4 319 358 345 221 189 111 103 92 198
250 254 259 261 260 253 243 234 230 230 210 197 227 270 191 199 193 156 185 236 225 240 242 190 191 115 123 161 279 176 169 135 154 146 150 132 151 182 198 208 132 197 184 178 139 129 182
245 249 252 255 255 250 240 227 220 216 205 195 225 249 203 227 242 182 169 217 189 224 218 198 215 203 181 207 176 226 120 121 91 152 99 131 209 185 250 236 186 218 189 183 201 192 185
240 241 243 245 249 248 245 227 215 210 199 201 205 196 200 277 257 169 175 213 203 228 168 236 182 220 202 184 191 214 149 207 186 106 170 347 222 157 284 145 205 254 230 205 219 236 265
235 236 239 240 242 242 248 234 218 208 203 194 212 223 192 250 155 122 221 207 210 193 231 221 209 147 196 237 252 242 164 151 162 148 173 157 144 111 265 352 313 290 231 190 189 210 189
228 227 233 237 239 241 247 245 220 210 208 201 206 207 189 230 176 214 254 201 216 220 239 26 99 150 262 134 109 93 79 89 95 62 134 139 118 101 237 2 279 248 129 177 205 228 215
227 226 225 230 235 237 244 243 232 216 210 208 206 201 199 222 193 236 226 204 138 102 111 170 177 158 150 131 57 57 353 22 56 39 50 91 120 75 151 201 291 279 209 161 173 279 209
224 227 224 225 229 236 239 239 234 221 214 212 214 209 203 172 229 219 195 208 198 184 333 168 153 171 166 82 91 165 202 218 219 125 60 69 73 121 107 158 237 243 212 193 173 297 238
223 223 224 220 225 227 228 229 230 220 217 211 209 211 207 240 242 207 197 205 183 143 143 188 158 149 142 85 116 159 231 175 195 182 162 89 26 176 181 241 287 244 151 155 108 242 331
223 223 222 226 221 220 220 220 221 220 217 209 207 208 210 227 243 222 212 200 173 185 153 156 97 200 66 122 147 213 196 219 165 168 177 168 156 191 97 114 279 155 118 180 241 315 275
220 220 220 223 225 216 214 215 213 216 218 212 207 208 216 219 239 238 237 231 235 230 182 176 177 186 198 100 200 109 206 157 179 230 19 235 188 184 184 211 257 193 226 233 270 306 304